Weather History for Eureka, N. W. T., Nunavut

Change the Weather History Date:

Saturday, February 16, 2013

  Actual Average Record
Temperature  
Mean Temperature -38 °F -  
Max Temperature -35 °F -30 °F - ()
Min Temperature -42 °F -43 °F - ()
Degree Days  
Heating Degree Days 104    
Moisture  
Dew Point -46 °F    
Average Humidity 64    
Maximum Humidity 74    
Minimum Humidity 43    
Precipitation  
Precipitation 0.00 in 0.00 in - ()
Sea Level Pressure  
Sea Level Pressure 30.27 in    
Wind  
Wind Speed 4 mph ()    
Max Wind Speed 8 mph    
Max Gust Speed -    
Visibility 15.0 miles    
Events Snow    
T = Trace of Precipitation, MM = Missing Value Source: Averaged Metar Reports

Daily Weather History Graph

Daily Weather History Graph

Search for Another Location

Airport:

Trip Planner

Search our weather history database for the weather conditions in past years. The results will help you decide how hot, cold, wet, or windy it might be!

Date:

Astronomy

Dec. 31, 1969 Rise Set
Actual Time Sun does not rise Sun does not rise
Civil Twilight 8:26 AM CST 3:32 PM CST
Nautical Twilight 5:57 AM CST 6:02 PM CST
Astronomical Twilight 3:32 AM CST 8:30 PM CST
Moon No Moon Rise No Moon Set
Length of Visible Light 7h 06m
Length of Day
0h 00m
Waxing Crescent, 39% of the Moon is Illuminated
Feb 16
Waxing Crescent
Feb 17
First Quarter
Feb 25
Full
Mar 4
Last Quarter
Mar 11
New

Hourly Weather History & Observations

Time (CST) Temp. Windchill Dew Point Humidity Pressure Visibility Wind Dir Wind Speed Gust Speed Precip Events Conditions
12:00 AM -38 °F - -45 °F 48% 30.22 in 15 mi SE 8.1 mph - - Snow Snow
12:00 AM -38.2 °F -60.7 °F -45.4 °F 67% 30.22 in 15.0 mi SE 8.1 mph - N/A   Clear
1:00 AM -36.4 °F -58.5 °F -45.4 °F 61% 30.23 in 15.0 mi SE 8.1 mph - N/A   Clear
2:00 AM -36.4 °F -56.8 °F -43.6 °F 67% 30.24 in 15.0 mi SE 6.9 mph - N/A   Clear
3:00 AM -36.4 °F -56.8 °F -43.6 °F 67% 30.25 in 15.0 mi SE 6.9 mph - N/A   Clear
4:00 AM -38.2 °F -58.9 °F -47.2 °F 61% 30.27 in 15.0 mi SE 6.9 mph - N/A   Clear
5:00 AM -40.0 °F -59.0 °F -47.2 °F 67% 30.27 in 15.0 mi SE 5.8 mph - N/A   Clear
6:00 AM -39 °F - -46 °F 50% 30.26 in 15 mi SE 5.8 mph - - Snow Snow
6:00 AM -38.2 °F -56.9 °F -45.4 °F 67% 30.26 in 15.0 mi SE 5.8 mph - N/A   Clear
7:00 AM -38.2 °F -54.5 °F -45.4 °F 67% 30.27 in 15.0 mi ESE 4.6 mph - N/A   Clear
8:00 AM -40.0 °F -56.6 °F -47.2 °F 67% 30.27 in 15.0 mi SE 4.6 mph - N/A   Partly Cloudy
9:00 AM -40.0 °F -53.5 °F -47.2 °F 67% 30.27 in 15.0 mi SE 3.5 mph - N/A   Partly Cloudy
10:00 AM -40.0 °F -53.5 °F -47.2 °F 67% 30.27 in 15.0 mi SSE 3.5 mph - N/A   Scattered Clouds
11:00 AM -38.2 °F - -45.4 °F 67% 30.27 in 15.0 mi Calm Calm - N/A   Partly Cloudy
12:00 PM -40 °F - -47 °F 50% 30.28 in 15 mi SE 3.5 mph - - Snow Snow
12:00 PM -40.0 °F -56.6 °F -47.2 °F 67% 30.28 in 15.0 mi SE 4.6 mph - N/A   Partly Cloudy
1:00 PM -40.0 °F - -47.2 °F 67% 30.28 in 15.0 mi Calm Calm - N/A   Partly Cloudy
2:00 PM -41.8 °F - -47.2 °F 74% 30.29 in 15.0 mi Calm Calm - N/A   Partly Cloudy
3:00 PM -38.2 °F - -45.4 °F 67% 30.29 in 15.0 mi Calm Calm - N/A   Mostly Cloudy
4:00 PM -38.2 °F - -45.4 °F 67% 30.30 in 15.0 mi Calm Calm - N/A   Mostly Cloudy
5:00 PM -36.4 °F - -43.6 °F 67% 30.30 in 15.0 mi South 2.3 mph - N/A   Mostly Cloudy
6:00 PM -37 °F - -46 °F 43% 30.30 in 15 mi Calm Calm - - Snow Snow
6:00 PM -38.2 °F - -45.4 °F 67% 30.30 in 15.0 mi Calm Calm - N/A   Overcast
7:00 PM -36.4 °F - -43.6 °F 67% 30.30 in 15.0 mi Calm Calm - N/A   Overcast
8:00 PM -36.4 °F - -43.6 °F 67% 30.30 in 15.0 mi Calm Calm - N/A   Mostly Cloudy
9:00 PM -36.4 °F - -43.6 °F 67% 30.30 in 15.0 mi South 2.3 mph - N/A   Partly Cloudy